Change the Weather History Date:

Monday, February 18, 2013

  Actual Average (KCIU) Record (KCIU)
Temperature  
Mean Temperature 20 °F -  
Max Temperature 33 °F 29 °F 46 °F (1997)
Min Temperature 8 °F 5 °F -34 °F (1979)
Degree Days  
Heating Degree Days 45    
Moisture  
Dew Point 20 °F    
Average Humidity 78    
Maximum Humidity 99    
Minimum Humidity 70    
Precipitation  
Precipitation 0.00 in - - ()
Sea Level Pressure  
Sea Level Pressure 29.85 in    
Wind  
Wind Speed 10 mph (SSE)    
Max Wind Speed 22 mph    
Max Gust Speed 34 mph    
Visibility 9 miles    
Events Snow    
Averages and records for this station are not official NWS values.
T = Trace of Precipitation, MM = Missing Value Source: NWS Daily Summary

Daily Weather History Graph

Daily Weather History Graph

Search for Another Location

Airport or City:

Trip Planner

Search our weather history database for the weather conditions in past years. The results will help you decide how hot, cold, wet, or windy it might be!

Date:

Astronomy

Feb. 18, 2013 Rise Set
Actual Time 7:32 AM EST 6:06 PM EST
Civil Twilight 7:01 AM EST 6:36 PM EST
Nautical Twilight 6:27 AM EST 7:11 PM EST
Astronomical Twilight 5:52 AM EST 7:46 PM EST
Moon 11:41 AM EST (2/18) 2:20 AM EST (2/18)
Length of Visible Light 11h 34m
Length of Day
10h 33m
First Quarter, 58% of the Moon is Illuminated
Feb 18
First Quarter
Feb 25
Full
Mar 4
Last Quarter
Mar 11
New
Mar 19
First Quarter

Hourly Weather History & Observations

Time (EST) Temp. Windchill Dew Point Humidity Pressure Visibility Wind Dir Wind Speed Gust Speed Precip Events Conditions
12:16 AM 8.6 °F 2.0 °F 5.0 °F 85% 30.09 in 10.0 mi SSE 3.5 mph - N/A   Mostly Cloudy
12:36 AM 9.5 °F 3.0 °F 5.7 °F 85% 30.09 in 10.0 mi SSE 3.5 mph - N/A   Mostly Cloudy
12:56 AM 9.7 °F - 5.9 °F 85% 30.09 in 10.0 mi Calm Calm - N/A   Mostly Cloudy
1:16 AM 12.4 °F 6.3 °F 8.1 °F 83% 30.09 in 10.0 mi South 3.5 mph - N/A   Overcast
1:36 AM 18.3 °F 10.2 °F 10.9 °F 73% 30.09 in 10.0 mi South 5.8 mph - N/A   Overcast
1:56 AM 18.7 °F 9.5 °F 11.1 °F 72% 30.09 in 10.0 mi SSW 6.9 mph - N/A   Overcast
2:16 AM 19.0 °F 10.0 °F 11.3 °F 72% 30.09 in 10.0 mi South 6.9 mph - N/A   Mostly Cloudy
2:36 AM 19.2 °F 9.3 °F 11.1 °F 71% 30.08 in 10.0 mi South 8.1 mph - N/A   Mostly Cloudy
2:56 AM 19.4 °F 9.5 °F 11.1 °F 70% 30.08 in 10.0 mi South 8.1 mph - N/A   Mostly Cloudy
3:16 AM 19.6 °F 9.7 °F 11.3 °F 70% 30.08 in 10.0 mi South 8.1 mph - N/A   Mostly Cloudy
3:36 AM 20.3 °F 11.5 °F 11.8 °F 70% 30.08 in 10.0 mi South 6.9 mph - N/A   Overcast
3:56 AM 20.3 °F 10.6 °F 12.2 °F 71% 30.07 in 10.0 mi South 8.1 mph - N/A   Overcast
4:15 AM 20.3 °F 11.5 °F 12.9 °F 73% 30.06 in 10.0 mi South 6.9 mph - N/A   Overcast
4:36 AM 20.8 °F 12.1 °F 13.5 °F 73% 30.06 in 10.0 mi South 6.9 mph - N/A   Overcast
4:56 AM 20.8 °F 9.7 °F 13.1 °F 72% 30.05 in 10.0 mi South 10.4 mph - N/A   Mostly Cloudy
5:16 AM 21.0 °F 10.6 °F 13.8 °F 74% 30.04 in 10.0 mi South 9.2 mph - N/A   Mostly Cloudy
5:36 AM 21.2 °F 10.1 °F 14.0 °F 74% 30.04 in 10.0 mi South 10.4 mph - N/A   Overcast
5:56 AM 21.0 °F 10.6 °F 13.8 °F 74% 30.03 in 10.0 mi South 9.2 mph 16.1 mph N/A   Scattered Clouds
6:16 AM 21.0 °F 9.3 °F 13.1 °F 71% 30.03 in 10.0 mi South 11.5 mph 17.3 mph N/A   Clear
6:36 AM 20.7 °F 9.5 °F 13.1 °F 73% 30.01 in 10.0 mi South 10.4 mph - N/A   Clear
6:56 AM 20.3 °F 9.8 °F 13.1 °F 74% 30.00 in 10.0 mi SSE 9.2 mph - N/A   Clear
7:16 AM 20.3 °F 9.8 °F 13.3 °F 74% 29.98 in 10.0 mi SSE 9.2 mph - N/A   Clear
7:36 AM 21.2 °F 10.9 °F 14.0 °F 74% 29.98 in 10.0 mi SSE 9.2 mph 17.3 mph N/A   Scattered Clouds
7:56 AM 21.9 °F 10.4 °F 14.9 °F 74% 29.97 in 10.0 mi SSE 11.5 mph 20.7 mph N/A   Clear
8:16 AM 22.8 °F 12.2 °F 15.4 °F 73% 29.97 in 10.0 mi SE 10.4 mph - N/A   Clear
8:36 AM 23.9 °F 13.5 °F 16.3 °F 73% 29.96 in 10.0 mi SSE 10.4 mph 18.4 mph N/A   Mostly Cloudy
9:16 AM 24.6 °F 13.8 °F 16.9 °F 72% 29.93 in 10.0 mi SE 11.5 mph 18.4 mph N/A   Overcast
9:35 AM 25.5 °F 13.3 °F 17.6 °F 72% 29.92 in 10.0 mi SE 15.0 mph 24.2 mph N/A   Overcast
9:56 AM 26.1 °F 14.5 °F 18.5 °F 73% 29.92 in 10.0 mi SSE 13.8 mph 26.5 mph N/A   Overcast
10:16 AM 26.6 °F 15.7 °F 19.2 °F 74% 29.93 in 10.0 mi SSE 12.7 mph 25.3 mph N/A   Overcast
10:35 AM 27.0 °F 15.6 °F 20.3 °F 76% 29.91 in 10.0 mi SSE 13.8 mph 25.3 mph N/A   Overcast
10:56 AM 27.5 °F 14.6 °F 19.9 °F 73% 29.91 in 10.0 mi SSE 18.4 mph 26.5 mph N/A   Overcast
11:16 AM 27.1 °F 15.4 °F 19.4 °F 73% 29.90 in 7.0 mi SE 15.0 mph 23.0 mph N/A Snow Light Snow
11:36 AM 27.5 °F 15.0 °F 20.5 °F 75% 29.89 in 10.0 mi SSE 17.3 mph - N/A   Overcast
11:56 AM 28.4 °F 15.8 °F 20.5 °F 72% 29.87 in 10.0 mi SE 18.4 mph 25.3 mph N/A   Overcast
12:16 PM 28.9 °F 16.5 °F 20.1 °F 70% 29.85 in 10.0 mi SE 18.4 mph 25.3 mph N/A   Overcast
12:36 PM 29.3 °F 17.0 °F 20.8 °F 71% 29.83 in 10.0 mi SE 18.4 mph 27.6 mph N/A   Overcast
12:56 PM 29.3 °F 16.6 °F 22.8 °F 77% 29.82 in 10.0 mi SE 19.6 mph 34.5 mph N/A   Overcast
1:16 PM 30.0 °F 17.9 °F 23.9 °F 78% 29.81 in 10.0 mi SE 18.4 mph 26.5 mph N/A   Overcast
1:36 PM 30.0 °F 18.7 °F 24.3 °F 79% 29.80 in 10.0 mi SE 16.1 mph 34.5 mph N/A   Overcast
1:56 PM 30.2 °F 17.8 °F 24.3 °F 79% 29.79 in 10.0 mi SE 19.6 mph 29.9 mph N/A   Overcast
2:15 PM 30.2 °F 18.1 °F 24.3 °F 79% 29.78 in 10.0 mi SSE 18.4 mph 27.6 mph N/A   Overcast
2:36 PM 30.2 °F 18.1 °F 24.1 °F 78% 29.76 in 10.0 mi SE 18.4 mph 31.1 mph N/A   Overcast
2:56 PM 30.6 °F 18.6 °F 24.1 °F 77% 29.76 in 10.0 mi SSE 18.4 mph 33.4 mph N/A   Overcast
3:16 PM 30.7 °F 18.1 °F 24.1 °F 76% 29.75 in 10.0 mi SSE 20.7 mph 28.8 mph N/A   Overcast
3:36 PM 30.7 °F 19.2 °F 24.6 °F 78% 29.73 in 10.0 mi SSE 17.3 mph 31.1 mph N/A   Overcast
3:56 PM 30.9 °F 18.4 °F 24.4 °F 77% 29.73 in 7.0 mi SE 20.7 mph 32.2 mph N/A   Overcast
4:16 PM 30.9 °F 18.1 °F 24.4 °F 77% 29.73 in 10.0 mi SE 21.9 mph 31.1 mph N/A   Mostly Cloudy
4:36 PM 31.1 °F 20.9 °F 24.8 °F 77% 29.72 in 10.0 mi SE 13.8 mph 26.5 mph N/A   Mostly Cloudy
4:55 PM 31.1 °F 19.7 °F 24.8 °F 77% 29.71 in 10.0 mi SE 17.3 mph 32.2 mph N/A   Mostly Cloudy
5:16 PM 31.1 °F 18.9 °F 24.6 °F 77% 29.71 in 10.0 mi SE 19.6 mph 27.6 mph N/A   Mostly Cloudy
5:36 PM 31.1 °F 21.4 °F 25.0 °F 78% 29.70 in 10.0 mi SE 12.7 mph 25.3 mph N/A   Overcast
5:56 PM 31.1 °F 20.1 °F 25.0 °F 78% 29.70 in 10.0 mi SE 16.1 mph 21.9 mph N/A   Mostly Cloudy
6:16 PM 31.1 °F 20.5 °F 25.2 °F 79% 29.71 in 10.0 mi SE 15.0 mph 20.7 mph N/A   Mostly Cloudy
6:36 PM 31.1 °F 21.4 °F 25.9 °F 81% 29.70 in 10.0 mi SE 12.7 mph 26.5 mph N/A   Mostly Cloudy
6:56 PM 31.1 °F 21.4 °F 25.7 °F 80% 29.70 in 10.0 mi SSE 12.7 mph 20.7 mph N/A   Scattered Clouds
7:16 PM 31.5 °F 21.4 °F 25.9 °F 80% 29.69 in 10.0 mi SE 13.8 mph 20.7 mph N/A   Mostly Cloudy
7:36 PM 31.6 °F 19.7 °F 26.6 °F 82% 29.69 in 10.0 mi SE 19.6 mph 28.8 mph N/A   Overcast
7:56 PM 31.8 °F 21.4 °F 27.0 °F 82% 29.67 in 10.0 mi SE 15.0 mph 26.5 mph N/A   Overcast
8:16 PM 32.0 °F 21.2 °F 26.6 °F 80% 29.66 in 10.0 mi SSE 16.1 mph 24.2 mph N/A   Overcast
8:36 PM 32.0 °F 21.2 °F 26.6 °F 80% 29.64 in 10.0 mi SE 16.1 mph 20.7 mph N/A   Overcast
8:56 PM 32.0 °F 20.8 °F 27.1 °F 82% 29.63 in 10.0 mi SE 17.3 mph 23.0 mph N/A   Overcast
9:16 PM 32.0 °F 21.6 °F 27.3 °F 83% 29.62 in 10.0 mi SE 15.0 mph 24.2 mph N/A   Overcast
9:36 PM 32.4 °F 22.1 °F 27.5 °F 82% 29.61 in 10.0 mi SE 15.0 mph 23.0 mph N/A   Overcast
9:56 PM 32.2 °F 21.4 °F 28.4 °F 86% 29.59 in 5.0 mi SE 16.1 mph 23.0 mph N/A Snow Light Snow
10:16 PM 32.0 °F 22.1 °F 30.0 °F 92% 29.58 in 4.0 mi SE 13.8 mph 21.9 mph N/A Snow Light Snow
10:36 PM 32.0 °F 21.6 °F 31.1 °F 96% 29.57 in 3.0 mi SE 15.0 mph 21.9 mph N/A   Overcast
10:56 PM 32.2 °F 22.7 °F 32.0 °F 99% 29.55 in 2.5 mi SE 12.7 mph 20.7 mph N/A Snow Light Snow
11:16 PM 32.4 °F 23.5 °F 32.2 °F 99% 29.54 in 2.5 mi SE 11.5 mph 20.7 mph N/A Snow Light Snow
11:36 PM 32.5 °F 23.7 °F 32.4 °F 99% 29.53 in 3.0 mi SE 11.5 mph 19.6 mph N/A   Overcast
11:56 PM 32.5 °F 23.7 °F 32.4 °F 99% 29.51 in 3.0 mi SE 11.5 mph 18.4 mph N/A   Overcast